Find METOP A

NORAD ID: 29499 Int'l Des: 2006-044 Owner: EUMET Country: I-EUM operational
LEORETROGRADESSO

現在のビュー

3D地球を読み込み中...

METOP Aについて

説明を読み込み中...

次回通過

Passes for default location (London). Set your location on the main map for personalized predictions.

高度履歴

Loading altitude history...

軌道要素

1 29499U 06044A 26151.52914750 .00003808 00000-0 43812-3 0 9995
2 29499 98.3322 257.7105 0175268 122.3412 6.6786 14.75897048 22991
Epoch: May 31, 2026 • Age: 7 hours

現在のステータス

高度 729.9 km
速度 7.45 km/s
衛星直下点 -62.43°S, 123.27°W
打ち上げ日 Oct 19, 2006
運用期間 19.6 years
タイプ other

技術仕様

分類 Payload
質量 4086.00 kg
乾燥質量 3769.00 kg
総質量 4086.00 kg
長さ 6.30 m
直径 3.40 m
スパン 17.60 m
形状 Box + Pan
製造者 EADSB
バスタイプ Metop
フェーズステータス In Orbit
所有者/国 EUMET/I-EUM

Most Searched